Kolkata, India

1:27 PM IST on April 19, 2015 (GMT +0530)
Netaji Subhash Chandra Bose International | | Change Station
CLOSE
Current Station
Airport
Location: Kolkata,
Elevation: 20 ft
Nearby Weather Stations

Elev 20 ft 22.65 °N, 88.44 °E | Updated 7 minutes ago

Partly Cloudy
Partly Cloudy
97 °F
Feels Like 115 °F
N
15
Wind Variable Wind from SSE

Today
High -- | Low -- °F
--% Chance of Precip.
Yesterday
High -- | Low -- °F
Precip. -- in
5:13 AM 5:57 PM
New Moon, 0% visible
Pressure 29.68 in
Visibility 3.7 miles
Clouds Few 2000 ft
Heat Index 115 °F
Dew Point 79 °F
Humidity 56%
Rainfall 0.00 in
Snow Depth Not available.
UV 13 out of 12
Pollen Not available.
Air Quality Not available.
Flu Activity Not available.
METAR VECC 190750Z 16013KT 6000 FEW020 36/26 Q1005 NOSIG

More Conditions Fewer Conditions

Pressure 29.68 in
Visibility 3.7 miles
Clouds Few 2000 ft
Heat Index 115 °F
Dew Point 79 °F
Humidity 56%
Rainfall 0.00 in
Snow Depth Not available.
UV 13 out of 12
Pollen Not available.
Air Quality Not available.
Flu Activity Not available.
METAR VECC 190750Z 16013KT 6000 FEW020 36/26 Q1005 NOSIG

More Conditions Fewer Conditions

10-Day Weather Forecast

Almanac

Astronomy

Apr. 19, 2015 Rise Set
Actual Time
Civil Twilight
Nautical Twilight
Astronomical Twilight
Moon
Length of Visible Light
Length of Day
Tomorrow will be .
, % of the Moon is Illuminated

Today's Extremes

Country Highs Country Lows

Community

WunderPhotos

Upload Photos

1,814,723 photos uploaded!

WunderBlogs® & News

Nearby

Air Quality

  Air Quality AQ Index Pollutant
Not available.

Snow Depth

Station Depth Elevation

Earthquake Activity

City Distance Mag. Time & Date
Minimum magnitude displayed is 2.5.

Coastal Water Temperatures

Place Temperature

Stations

Nearby Weather Stations

Station Location Temp. Windchill Dew Point Humidity Wind Precip. Elev Updated Type